Satellite: NOAA-14
Catalog number: 23455
Epoch time: 10065.45244716
Element set: 972
Inclination: 098.8837 deg
RA of node: 146.8932 deg
Eccentricity: 0.0009604
Arg of perigee: 162.3226 deg
Mean anomaly: 197.8282 deg
Mean motion: 14.13780433 rev/day
Decay rate: 3.0e-07 rev/day^2
Epoch rev: 78298
Checksum: 323
Satellite: NOAA-15
Catalog number: 25338
Epoch time: 10065.20541645
Element set: 291
Inclination: 098.6127 deg
RA of node: 054.0170 deg
Eccentricity: 0.0010964
Arg of perigee: 020.1387 deg
Mean anomaly: 340.0246 deg
Mean motion: 14.24810947 rev/day
Decay rate: 1.98e-06 rev/day^2
Epoch rev: 61408
Checksum: 275
Satellite: RESURS
Catalog number: 25394
Epoch time: 10067.67230692
Element set: 0451
Inclination: 098.3138 deg
RA of node: 091.1898 deg
Eccentricity: 0.0001888
Arg of perigee: 126.9798 deg
Mean anomaly: 233.1559 deg
Mean motion: 14.24194596 rev/day
Decay rate: 4.0e-08 rev/day^2
Epoch rev: 60604
Checksum: 321
Satellite: FENGYUN1
Catalog number: 25730
Epoch time: 10067.83839929
Element set: 0993
Inclination: 098.7783 deg
RA of node: 035.4327 deg
Eccentricity: 0.0023201
Arg of perigee: 188.0427 deg
Mean anomaly: 172.0401 deg
Mean motion: 14.08177448 rev/day
Decay rate: 1.00e-06 rev/day^2
Epoch rev: 55756
Checksum: 305
Satellite: OKEAN-0
Catalog number: 25860
Epoch time: 10066.08984565
Element set: 931
Inclination: 097.8215 deg
RA of node: 042.3221 deg
Eccentricity: 0.0001861
Arg of perigee: 066.2304 deg
Mean anomaly: 293.9091 deg
Mean motion: 14.73618886 rev/day
Decay rate: 4.5e-07 rev/day^2
Epoch rev: 57186
Checksum: 307
Satellite: NOAA-16
Catalog number: 26536
Epoch time: 10066.29799181
Element set: 769
Inclination: 099.1765 deg
RA of node: 081.3396 deg
Eccentricity: 0.0009790
Arg of perigee: 261.9492 deg
Mean anomaly: 098.0587 deg
Mean motion: 14.12550159 rev/day
Decay rate: 2.91e-06 rev/day^2
Epoch rev: 48744
Checksum: 354
Satellite: NOAA-17
Catalog number: 27453
Epoch time: 10065.28004961
Element set: 774
Inclination: 098.4444 deg
RA of node: 119.8053 deg
Eccentricity: 0.0012691
Arg of perigee: 079.8237 deg
Mean anomaly: 280.4387 deg
Mean motion: 14.24135730 rev/day
Decay rate: -9.9e-07 rev/day^2
Epoch rev: 40005
Checksum: 305
Satellite: NOAA-18
Catalog number: 28654
Epoch time: 10066.49720207
Element set: 260
Inclination: 098.9413 deg
RA of node: 013.1072 deg
Eccentricity: 0.0014173
Arg of perigee: 344.0936 deg
Mean anomaly: 015.9786 deg
Mean motion: 14.11332529 rev/day
Decay rate: -8.2e-07 rev/day^2
Epoch rev: 24709
Checksum: 290
Satellite: NOAA-19
Catalog number: 33591
Epoch time: 10065.32854554
Element set: 460
Inclination: 098.7788 deg
RA of node: 009.6855 deg
Eccentricity: 0.0013531
Arg of perigee: 218.1336 deg
Mean anomaly: 141.8884 deg
Mean motion: 14.11031813 rev/day
Decay rate: 3.61e-06 rev/day^2
Epoch rev: 5540
Checksum: 297
/EX
SB KEPS @ AMSAT $ORB10070.M
Orbital Elements 10070.MISC
HR AMSAT ORBITAL ELEMENTS FOR MANNED AND MISCELLANEOUS SATELLITES
FROM WA5QGD FORT WORTH,TX March 11, 2010
Send Subscribe/unsubscribe to KEPS at http://www.amsat.org/mailman/listinfo/keps
BID: ORB10070.M
TO ALL RADIO AMATEURS BT
Satellite: HUBBLE
Catalog number: 20580
Epoch time: 10066.57864224
Element set: 0532
Inclination: 028.4687 deg
RA of node: 183.1574 deg
Eccentricity: 0.0003395
Arg of perigee: 198.8317 deg
Mean anomaly: 161.2293 deg
Mean motion: 15.00913799 rev/day
Decay rate: 5.70e-06 rev/day^2
Epoch rev: 88947
Checksum: 322
Satellite: ISS
Catalog number: 25544
Epoch time: 10066.48187660
Element set: 721
Inclination: 051.6482 deg
RA of node: 032.7439 deg
Eccentricity: 0.0007757
Arg of perigee: 023.0370 deg
Mean anomaly: 074.9567 deg
Mean motion: 15.73705588 rev/day
Decay rate: 1.4123e-04 rev/day^2
Epoch rev: 64745
Checksum: 309
Satellite: CO-58
Catalog number: 28895
Epoch time: 10067.63944091
Element set: 0530
Inclination: 098.0271 deg
RA of node: 315.3687 deg
Eccentricity: 0.0016921
Arg of perigee: 238.1906 deg
Mean anomaly: 121.7657 deg
Mean motion: 14.59855613 rev/day
Decay rate: 7.4e-07 rev/day^2
Epoch rev: 23231
Checksum: 320
Satellite: FALCON
Catalog number: 30776
Epoch time: 10065.89131473
Element set: 779
Inclination: 035.4345 deg
RA of node: 305.2874 deg
Eccentricity: 0.0001717
Arg of perigee: 343.4872 deg
Mean anomaly: 016.5788 deg
Mean motion: 15.03507708 rev/day
Decay rate: 7.04e-06 rev/day^2
Epoch rev: 16465
Checksum: 307
Satellite: MAST
Catalog number: 31126
Epoch time: 10067.78935783
Element set: 0814
Inclination: 097.9504 deg
RA of node: 114.9330 deg
Eccentricity: 0.0094474
Arg of perigee: 177.5470 deg
Mean anomaly: 182.6183 deg
Mean motion: 14.53560879 rev/day
Decay rate: 6.6e-07 rev/day^2
Epoch rev: 15347
Checksum: 323
Satellite: CAPE1
Catalog number: 31130
Epoch time: 10067.53675659
Element set: 0832
Inclination: 097.9499 deg
RA of node: 112.3033 deg
Eccentricity: 0.0102494
Arg of perigee: 185.8109 deg
Mean anomaly: 174.1921 deg
Mean motion: 14.52144186 rev/day
Decay rate: 1.97e-06 rev/day^2
Epoch rev: 15305
Checksum: 295
Satellite: COMPASS
Catalog number: 32787
Epoch time: 10066.61121754
Element set: 0614
Inclination: 097.9046 deg
RA of node: 132.7210 deg
Eccentricity: 0.0014822
Arg of perigee: 254.8566 deg
Mean anomaly: 105.1033 deg
Mean motion: 14.81781113 rev/day
Decay rate: 5.97e-06 rev/day^2
Epoch rev: 10045
Checksum: 270
Satellite: AAUSAT2
Catalog number: 32788
Epoch time: 10067.43414337
Element set: 0610
Inclination: 097.9079 deg
RA of node: 133.6431 deg
Eccentricity: 0.0013870
Arg of perigee: 252.7227 deg
Mean anomaly: 107.2438 deg
Mean motion: 14.81918785 rev/day
Decay rate: 6.61e-06 rev/day^2
Epoch rev: 10058
Checksum: 301
Satellite: DO-64
Catalog number: 32789
Epoch time: 10065.89797618
Element set: 623
Inclination: 097.9107 deg
RA of node: 132.4892 deg
Eccentricity: 0.0014672
Arg of perigee: 256.9700 deg
Mean anomaly: 102.9844 deg
Mean motion: 14.81998471 rev/day
Decay rate: 1.078e-05 rev/day^2
Epoch rev: 10035
Checksum: 342
Satellite: CO-66
Catalog number: 32791
Epoch time: 10065.40323763
Element set: 603
Inclination: 097.9067 deg
RA of node: 131.5534 deg
Eccentricity: 0.0014983
Arg of perigee: 258.6058 deg
Mean anomaly: 101.3481 deg
Mean motion: 14.81580913 rev/day
Decay rate: 2.62e-06 rev/day^2
Epoch rev: 10023
Checksum: 286
Satellite: RS-30
Catalog number: 32953
Epoch time: 10067.59796295
Element set: 0543
Inclination: 082.4975 deg
RA of node: 092.2354 deg
Eccentricity: 0.0018125
Arg of perigee: 326.1040 deg
Mean anomaly: 033.8886 deg
Mean motion: 12.43004126 rev/day
Decay rate: 1.0e-07 rev/day^2
Epoch rev: 08124
Checksum: 282
Satellite: TACSAT-3
Catalog number: 35001
Epoch time: 10066.51435938
Element set: 232
Inclination: 040.4553 deg
RA of node: 104.3727 deg
Eccentricity: 0.0023351
Arg of perigee: 322.0728 deg
Mean anomaly: 037.8441 deg
Mean motion: 15.40591047 rev/day
Decay rate: 5.970e-05 rev/day^2
Epoch rev: 4494
Checksum: 267
Satellite: PHARMSAT
Catalog number: 35002
Epoch time: 10066.24672703
Element set: 220
Inclination: 040.4695 deg
RA of node: 104.3829 deg
Eccentricity: 0.0026386
Arg of perigee: 323.8566 deg
Mean anomaly: 036.0466 deg
Mean motion: 15.41221037 rev/day
Decay rate: 5.264e-05 rev/day^2
Epoch rev: 4491
Checksum: 265
Satellite: HAWKSAT1
Catalog number: 35003
Epoch time: 10066.19738930
Element set: 232
Inclination: 040.4618 deg
RA of node: 101.9687 deg
Eccentricity: 0.0024726
Arg of perigee: 332.0065 deg
Mean anomaly: 027.9415 deg
Mean motion: 15.43153776 rev/day
Decay rate: 1.0480e-04 rev/day^2
Epoch rev: 4494
Checksum: 278
Satellite: CP6
Catalog number: 35004
Epoch time: 10067.46658570
Element set: 0228
Inclination: 040.4624 deg
RA of node: 093.9987 deg
Eccentricity: 0.0023755
Arg of perigee: 342.0491 deg
Mean anomaly: 017.9483 deg
Mean motion: 15.43616859 rev/day
Decay rate: 1.2303e-04 rev/day^2
Epoch rev: 04513
Checksum: 304
Satellite: AEROCUB3
Catalog number: 35005
Epoch time: 10067.47286393
Element set: 0253
Inclination: 040.4731 deg
RA of node: 094.3631 deg
Eccentricity: 0.0021506
Arg of perigee: 340.9109 deg
Mean anomaly: 019.0899 deg
Mean motion: 15.44896863 rev/day
Decay rate: 2.4277e-04 rev/day^2
Epoch rev: 04513
Checksum: 299
Satellite: DRAGNSAT
Catalog number: 35690
Epoch time: 10066.12079401
Element set: 300
Inclination: 051.6306 deg
RA of node: 011.1391 deg
Eccentricity: 0.0003966
Arg of perigee: 161.9362 deg
Mean anomaly: 198.1771 deg
Mean motion: 16.13316135 rev/day
Decay rate: 4.88055e-03 rev/day^2
Epoch rev: 3492
Checksum: 270
Satellite: POLLUX
Catalog number: 35693
Epoch time: 10066.22036237
Element set: 297
Inclination: 051.6332 deg
RA of node: 013.4000 deg
Eccentricity: 0.0004930
Arg of perigee: 141.4160 deg
Mean anomaly: 218.7206 deg
Mean motion: 16.05207381 rev/day
Decay rate: 2.36044e-03 rev/day^2
Epoch rev: 3487
Checksum: 249
Satellite: CASTOR
Catalog number: 35694
Epoch time: 10066.10399590
Element set: 217
Inclination: 051.6394 deg
RA of node: 021.0992 deg
Eccentricity: 0.0004594
Arg of perigee: 131.4043 deg
Mean anomaly: 228.7236 deg
Mean motion: 15.88999850 rev/day
Decay rate: 4.5708e-04 rev/day^2
Epoch rev: 3476
Checksum: 318
Satellite: METEOR-M
Catalog number: 35865
Epoch time: 10067.71387604
Element set: 0146
Inclination: 098.7715 deg
RA of node: 122.1725 deg
Eccentricity: 0.0001868
Arg of perigee: 309.8782 deg
Mean anomaly: 050.2181 deg
Mean motion: 14.21829086 rev/day
Decay rate: 1.76e-06 rev/day^2
Epoch rev: 02444
Checksum: 301
